Time,TemperatureF,DewpointF,PressureIn,WindDirection,WindDirectionDegrees,WindSpeedMPH,WindSpeedGustMPH,Humidity,HourlyPrecipIn,Conditions,Clouds,dailyrainin,SoftwareType,DateUTC
2013-09-08 00:01:00,79.8,64.2,29.77,SE,140,1.0,-999.0,59,0.00,,,0.00,WeatherSnoop3.0,2013-09-08 05:01:00,
2013-09-08 00:06:00,79.8,64.2,29.77,SE,145,0.0,-999.0,59,0.00,,,0.00,WeatherSnoop3.0,2013-09-08 05:06:00,
2013-09-08 00:11:00,79.6,64.0,29.77,SSW,208,1.0,-999.0,59,0.00,,,0.00,WeatherSnoop3.0,2013-09-08 05:11:00,
2013-09-08 00:16:00,79.5,64.4,29.77,ESE,119,1.0,-999.0,60,0.00,,,0.00,WeatherSnoop3.0,2013-09-08 05:16:00,
2013-09-08 00:21:00,79.5,64.4,29.77,SSW,203,0.0,-999.0,60,0.00,,,0.00,WeatherSnoop3.0,2013-09-08 05:21:00,
2013-09-08 00:26:00,79.4,64.3,29.77,SE,138,0.0,-999.0,60,0.00,,,0.00,WeatherSnoop3.0,2013-09-08 05:26:00,
2013-09-08 00:31:00,79.3,64.2,29.77,South,191,0.0,-999.0,60,0.00,,,0.00,WeatherSnoop3.0,2013-09-08 05:31:00,
2013-09-08 00:36:00,79.1,64.5,29.77,SW,219,0.0,-999.0,61,0.00,,,0.00,WeatherSnoop3.0,2013-09-08 05:36:00,
2013-09-08 00:41:00,78.8,64.2,29.77,SSE,168,2.0,-999.0,61,0.00,,,0.00,WeatherSnoop3.0,2013-09-08 05:41:00,
2013-09-08 00:46:00,78.6,64.5,29.77,SE,140,0.0,-999.0,62,0.00,,,0.00,WeatherSnoop3.0,2013-09-08 05:46:00,
2013-09-08 00:51:00,78.4,64.3,29.77,SSE,149,0.0,-999.0,62,0.00,,,0.00,WeatherSnoop3.0,2013-09-08 05:51:00,
2013-09-08 00:56:00,78.1,64.0,29.77,SSW,210,0.0,-999.0,62,0.00,,,0.00,WeatherSnoop3.0,2013-09-08 05:56:00,
2013-09-08 01:01:00,77.9,64.3,29.77,SSW,195,0.0,-999.0,63,0.00,,,0.00,WeatherSnoop3.0,2013-09-08 06:01:00,
2013-09-08 01:06:00,77.5,64.3,29.77,ESE,122,0.0,-999.0,64,0.00,,,0.00,WeatherSnoop3.0,2013-09-08 06:06:00,
2013-09-08 01:11:00,77.2,64.5,29.77,South,175,0.0,-999.0,65,0.00,,,0.00,WeatherSnoop3.0,2013-09-08 06:11:00,
2013-09-08 01:16:00,77.2,64.5,29.77,SSE,160,0.0,-999.0,65,0.00,,,0.00,WeatherSnoop3.0,2013-09-08 06:16:00,
2013-09-08 01:21:00,77.1,64.4,29.77,SE,142,0.0,-999.0,65,0.00,,,0.00,WeatherSnoop3.0,2013-09-08 06:21:00,
2013-09-08 01:26:00,77.2,64.5,29.77,SW,215,2.0,-999.0,65,0.00,,,0.00,WeatherSnoop3.0,2013-09-08 06:26:00,
2013-09-08 01:31:00,77.5,64.3,29.77,SSW,209,1.0,-999.0,64,0.00,,,0.00,WeatherSnoop3.0,2013-09-08 06:31:00,
2013-09-08 01:36:00,77.5,64.3,29.78,SSW,205,0.0,-999.0,64,0.00,,,0.00,WeatherSnoop3.0,2013-09-08 06:36:00,
2013-09-08 01:41:00,77.3,64.2,29.78,SW,226,0.0,-999.0,64,0.00,,,0.00,WeatherSnoop3.0,2013-09-08 06:41:00,
2013-09-08 01:46:00,77.0,64.3,29.78,ESE,122,0.0,-999.0,65,0.00,,,0.00,WeatherSnoop3.0,2013-09-08 06:46:00,
2013-09-08 01:51:00,76.6,64.4,29.78,ESE,122,0.0,-999.0,66,0.00,,,0.00,WeatherSnoop3.0,2013-09-08 06:51:00,
2013-09-08 01:56:00,76.2,64.4,29.78,ESE,122,0.0,-999.0,67,0.00,,,0.00,WeatherSnoop3.0,2013-09-08 06:56:00,
2013-09-08 02:01:00,75.9,64.6,29.78,ESE,121,0.0,-999.0,68,0.00,,,0.00,WeatherSnoop3.0,2013-09-08 07:01:00,
2013-09-08 02:06:00,75.9,64.6,29.77,SE,126,0.0,-999.0,68,0.00,,,0.00,WeatherSnoop3.0,2013-09-08 07:06:00,
2013-09-08 02:11:00,75.6,64.3,29.77,SE,140,0.0,-999.0,68,0.00,,,0.00,WeatherSnoop3.0,2013-09-08 07:11:00,
2013-09-08 02:16:00,75.6,64.3,29.77,SE,142,1.0,-999.0,68,0.00,,,0.00,WeatherSnoop3.0,2013-09-08 07:16:00,
2013-09-08 02:21:00,75.5,64.2,29.77,SE,136,0.0,-999.0,68,0.00,,,0.00,WeatherSnoop3.0,2013-09-08 07:21:00,
2013-09-08 02:26:00,75.4,64.1,29.77,SE,132,0.0,-999.0,68,0.00,,,0.00,WeatherSnoop3.0,2013-09-08 07:26:00,
2013-09-08 02:31:00,75.4,64.1,29.77,SE,146,0.0,-999.0,68,0.00,,,0.00,WeatherSnoop3.0,2013-09-08 07:31:00,
2013-09-08 02:36:00,75.4,64.1,29.77,SE,125,1.0,-999.0,68,0.00,,,0.00,WeatherSnoop3.0,2013-09-08 07:36:00,
2013-09-08 02:41:00,75.6,64.3,29.77,SSE,153,0.0,-999.0,68,0.00,,,0.00,WeatherSnoop3.0,2013-09-08 07:41:00,
2013-09-08 02:46:00,75.7,64.4,29.77,SW,217,0.0,-999.0,68,0.00,,,0.00,WeatherSnoop3.0,2013-09-08 07:46:00,
2013-09-08 02:51:00,75.8,64.5,29.77,SSE,148,0.0,-999.0,68,0.00,,,0.00,WeatherSnoop3.0,2013-09-08 07:51:00,
2013-09-08 02:56:00,75.7,64.4,29.76,SSW,208,1.0,-999.0,68,0.00,,,0.00,WeatherSnoop3.0,2013-09-08 07:56:00,
2013-09-08 03:01:00,75.8,64.5,29.76,SSW,210,2.0,-999.0,68,0.00,,,0.00,WeatherSnoop3.0,2013-09-08 08:01:00,
2013-09-08 03:06:00,75.6,64.3,29.76,SW,226,0.0,-999.0,68,0.00,,,0.00,WeatherSnoop3.0,2013-09-08 08:06:00,
2013-09-08 03:11:00,75.4,64.1,29.76,SSE,165,0.0,-999.0,68,0.00,,,0.00,WeatherSnoop3.0,2013-09-08 08:11:00,
2013-09-08 03:16:00,75.3,64.4,29.76,SSE,149,0.0,-999.0,69,0.00,,,0.00,WeatherSnoop3.0,2013-09-08 08:16:00,
2013-09-08 03:21:00,75.2,64.3,29.76,SSW,211,0.0,-999.0,69,0.00,,,0.00,WeatherSnoop3.0,2013-09-08 08:21:00,
2013-09-08 03:26:00,75.2,64.3,29.76,SSE,153,0.0,-999.0,69,0.00,,,0.00,WeatherSnoop3.0,2013-09-08 08:26:00,
2013-09-08 03:31:00,75.1,64.6,29.76,South,180,0.0,-999.0,70,0.00,,,0.00,WeatherSnoop3.0,2013-09-08 08:31:00,
2013-09-08 03:36:00,75.0,64.5,29.76,SSW,208,0.0,-999.0,70,0.00,,,0.00,WeatherSnoop3.0,2013-09-08 08:36:00,
2013-09-08 03:41:00,74.9,64.4,29.76,SSE,155,0.0,-999.0,70,0.00,,,0.00,WeatherSnoop3.0,2013-09-08 08:41:00,
2013-09-08 03:46:00,74.7,64.2,29.76,SSW,208,0.0,-999.0,70,0.00,,,0.00,WeatherSnoop3.0,2013-09-08 08:46:00,
2013-09-08 03:51:00,74.5,64.5,29.76,SW,226,0.0,-999.0,71,0.00,,,0.00,WeatherSnoop3.0,2013-09-08 08:51:00,
2013-09-08 03:56:00,74.4,64.4,29.76,SW,218,0.0,-999.0,71,0.00,,,0.00,WeatherSnoop3.0,2013-09-08 08:56:00,
2013-09-08 04:01:00,74.2,64.2,29.76,SW,225,0.0,-999.0,71,0.00,,,0.00,WeatherSnoop3.0,2013-09-08 09:01:00,
2013-09-08 04:06:00,74.0,64.0,29.76,SW,219,0.0,-999.0,71,0.00,,,0.00,WeatherSnoop3.0,2013-09-08 09:06:00,
2013-09-08 04:11:00,73.8,64.2,29.76,SSE,150,0.0,-999.0,72,0.00,,,0.00,WeatherSnoop3.0,2013-09-08 09:11:00,
2013-09-08 04:16:00,73.7,64.1,29.76,ESE,115,0.0,-999.0,72,0.00,,,0.00,WeatherSnoop3.0,2013-09-08 09:16:00,
2013-09-08 04:21:00,73.5,64.3,29.76,ESE,115,0.0,-999.0,73,0.00,,,0.00,WeatherSnoop3.0,2013-09-08 09:21:00,
2013-09-08 04:26:00,73.1,63.9,29.76,ESE,115,0.0,-999.0,73,0.00,,,0.00,WeatherSnoop3.0,2013-09-08 09:26:00,
2013-09-08 04:31:00,72.9,64.1,29.76,ESE,115,0.0,-999.0,74,0.00,,,0.00,WeatherSnoop3.0,2013-09-08 09:31:00,
2013-09-08 04:36:00,72.7,63.9,29.76,SSW,198,0.0,-999.0,74,0.00,,,0.00,WeatherSnoop3.0,2013-09-08 09:36:00,
2013-09-08 04:41:00,72.7,63.9,29.76,South,181,0.0,-999.0,74,0.00,,,0.00,WeatherSnoop3.0,2013-09-08 09:41:00,
2013-09-08 04:46:00,72.6,63.8,29.76,South,181,0.0,-999.0,74,0.00,,,0.00,WeatherSnoop3.0,2013-09-08 09:46:00,
2013-09-08 04:51:00,72.4,64.0,29.76,South,186,0.0,-999.0,75,0.00,,,0.00,WeatherSnoop3.0,2013-09-08 09:51:00,
2013-09-08 04:56:00,72.2,63.8,29.76,SSE,152,0.0,-999.0,75,0.00,,,0.00,WeatherSnoop3.0,2013-09-08 09:56:00,
2013-09-08 05:01:00,72.1,63.7,29.76,SSE,152,0.0,-999.0,75,0.00,,,0.00,WeatherSnoop3.0,2013-09-08 10:01:00,
2013-09-08 05:06:00,71.8,63.8,29.76,SSE,153,0.0,-999.0,76,0.00,,,0.00,WeatherSnoop3.0,2013-09-08 10:06:00,
2013-09-08 05:11:00,71.4,63.8,29.76,SSE,153,0.0,-999.0,77,0.00,,,0.00,WeatherSnoop3.0,2013-09-08 10:11:00,
2013-09-08 05:16:00,71.1,63.5,29.76,SSE,152,0.0,-999.0,77,0.00,,,0.00,WeatherSnoop3.0,2013-09-08 10:16:00,
2013-09-08 05:21:00,70.6,63.4,29.76,SSE,152,0.0,-999.0,78,0.00,,,0.00,WeatherSnoop3.0,2013-09-08 10:21:00,
2013-09-08 05:26:00,70.3,63.5,29.76,SSE,153,0.0,-999.0,79,0.00,,,0.00,WeatherSnoop3.0,2013-09-08 10:26:00,
2013-09-08 05:31:00,70.1,63.3,29.76,SSE,153,0.0,-999.0,79,0.00,,,0.00,WeatherSnoop3.0,2013-09-08 10:31:00,
2013-09-08 05:36:00,69.9,63.4,29.76,SSE,153,0.0,-999.0,80,0.00,,,0.00,WeatherSnoop3.0,2013-09-08 10:36:00,
2013-09-08 05:41:00,69.9,63.8,29.76,SSE,153,0.0,-999.0,81,0.00,,,0.00,WeatherSnoop3.0,2013-09-08 10:41:00,
2013-09-08 05:46:00,69.9,63.8,29.76,SSE,153,0.0,-999.0,81,0.00,,,0.00,WeatherSnoop3.0,2013-09-08 10:46:00,
2013-09-08 05:51:00,69.8,63.3,29.76,SSE,153,0.0,-999.0,80,0.00,,,0.00,WeatherSnoop3.0,2013-09-08 10:51:00,
2013-09-08 05:56:00,69.9,63.4,29.76,SSW,200,0.0,-999.0,80,0.00,,,0.00,WeatherSnoop3.0,2013-09-08 10:56:00,
2013-09-08 06:01:00,70.0,63.5,29.76,SE,139,0.0,-999.0,80,0.00,,,0.00,WeatherSnoop3.0,2013-09-08 11:01:00,
2013-09-08 06:06:00,70.1,63.6,29.77,SE,140,0.0,-999.0,80,0.00,,,0.00,WeatherSnoop3.0,2013-09-08 11:06:00,
2013-09-08 06:11:00,70.4,63.9,29.77,SE,146,1.0,-999.0,80,0.00,,,0.00,WeatherSnoop3.0,2013-09-08 11:11:00,
2013-09-08 06:16:00,70.5,63.7,29.77,SE,145,0.0,-999.0,79,0.00,,,0.00,WeatherSnoop3.0,2013-09-08 11:16:00,
2013-09-08 06:21:00,70.6,63.8,29.77,SE,145,0.0,-999.0,79,0.00,,,0.00,WeatherSnoop3.0,2013-09-08 11:21:00,
2013-09-08 06:26:00,70.6,63.8,29.77,SSW,205,0.0,-999.0,79,0.00,,,0.00,WeatherSnoop3.0,2013-09-08 11:26:00,
2013-09-08 06:31:00,70.6,63.8,29.77,SE,131,2.0,-999.0,79,0.00,,,0.00,WeatherSnoop3.0,2013-09-08 11:31:00,
2013-09-08 06:36:00,70.7,63.9,29.77,SE,143,1.0,-999.0,79,0.00,,,0.00,WeatherSnoop3.0,2013-09-08 11:36:00,
2013-09-08 06:41:00,70.6,63.8,29.77,SE,124,0.0,-999.0,79,0.00,,,0.00,WeatherSnoop3.0,2013-09-08 11:41:00,
2013-09-08 06:46:00,70.6,63.8,29.77,SSE,149,0.0,-999.0,79,0.00,,,0.00,WeatherSnoop3.0,2013-09-08 11:46:00,
2013-09-08 06:51:00,70.5,64.0,29.77,SE,136,0.0,-999.0,80,0.00,,,0.00,WeatherSnoop3.0,2013-09-08 11:51:00,
2013-09-08 06:56:00,70.3,63.8,29.77,SE,143,0.0,-999.0,80,0.00,,,0.00,WeatherSnoop3.0,2013-09-08 11:56:00,
2013-09-08 07:01:00,70.1,63.6,29.77,SSE,150,0.0,-999.0,80,0.00,,,0.00,WeatherSnoop3.0,2013-09-08 12:01:00,
2013-09-08 07:06:00,69.9,63.4,29.77,SSE,149,0.0,-999.0,80,0.00,,,0.00,WeatherSnoop3.0,2013-09-08 12:06:00,
2013-09-08 07:11:00,69.6,63.5,29.77,SSE,149,0.0,-999.0,81,0.00,,,0.00,WeatherSnoop3.0,2013-09-08 12:11:00,
2013-09-08 07:16:00,69.3,63.6,29.77,SSE,149,0.0,-999.0,82,0.00,,,0.00,WeatherSnoop3.0,2013-09-08 12:16:00,
2013-09-08 07:21:00,69.0,63.6,29.77,SSE,149,0.0,-999.0,83,0.00,,,0.00,WeatherSnoop3.0,2013-09-08 12:21:00,
2013-09-08 07:26:00,68.8,63.4,29.77,SSE,149,0.0,-999.0,83,0.00,,,0.00,WeatherSnoop3.0,2013-09-08 12:26:00,
2013-09-08 07:31:00,68.6,63.6,29.77,SSE,149,0.0,-999.0,84,0.00,,,0.00,WeatherSnoop3.0,2013-09-08 12:31:00,
2013-09-08 07:36:00,68.6,63.6,29.77,SSE,149,0.0,-999.0,84,0.00,,,0.00,WeatherSnoop3.0,2013-09-08 12:36:00,
2013-09-08 07:41:00,68.8,63.8,29.77,SSE,147,0.0,-999.0,84,0.00,,,0.00,WeatherSnoop3.0,2013-09-08 12:41:00,
2013-09-08 07:46:00,69.4,64.0,29.77,SE,131,0.0,-999.0,83,0.00,,,0.00,WeatherSnoop3.0,2013-09-08 12:46:00,
2013-09-08 07:51:00,69.8,64.0,29.77,ESE,121,0.0,-999.0,82,0.00,,,0.00,WeatherSnoop3.0,2013-09-08 12:51:00,
2013-09-08 07:56:00,70.3,64.2,29.77,SE,134,0.0,-999.0,81,0.00,,,0.00,WeatherSnoop3.0,2013-09-08 12:56:00,
2013-09-08 08:01:00,70.7,64.6,29.77,SE,143,1.0,-999.0,81,0.00,,,0.00,WeatherSnoop3.0,2013-09-08 13:01:00,
2013-09-08 08:06:00,71.1,64.6,29.77,SSW,203,1.0,-999.0,80,0.00,,,0.00,WeatherSnoop3.0,2013-09-08 13:06:00,
2013-09-08 08:11:00,71.5,65.0,29.77,SE,140,1.0,-999.0,80,0.00,,,0.00,WeatherSnoop3.0,2013-09-08 13:11:00,
2013-09-08 08:16:00,71.9,65.0,29.77,SE,138,2.0,-999.0,79,0.00,,,0.00,WeatherSnoop3.0,2013-09-08 13:16:00,
2013-09-08 08:21:00,72.3,65.0,29.77,SSE,168,1.0,-999.0,78,0.00,,,0.00,WeatherSnoop3.0,2013-09-08 13:21:00,
2013-09-08 08:26:00,72.8,65.2,29.77,SSE,152,1.0,-999.0,77,0.00,,,0.00,WeatherSnoop3.0,2013-09-08 13:26:00,
2013-09-08 08:31:00,73.2,65.5,29.77,SE,134,1.0,-999.0,77,0.00,,,0.00,WeatherSnoop3.0,2013-09-08 13:31:00,
2013-09-08 08:36:00,73.7,66.0,29.77,SW,224,1.0,-999.0,77,0.00,,,0.00,WeatherSnoop3.0,2013-09-08 13:36:00,
2013-09-08 08:41:00,74.3,65.8,29.77,SW,221,1.0,-999.0,75,0.00,,,0.00,WeatherSnoop3.0,2013-09-08 13:41:00,
2013-09-08 08:46:00,74.9,65.6,29.77,SSW,212,3.0,-999.0,73,0.00,,,0.00,WeatherSnoop3.0,2013-09-08 13:46:00,
2013-09-08 08:51:00,75.4,66.1,29.77,SE,143,0.0,-999.0,73,0.00,,,0.00,WeatherSnoop3.0,2013-09-08 13:51:00,
2013-09-08 08:56:00,75.8,66.1,29.77,SSE,165,1.0,-999.0,72,0.00,,,0.00,WeatherSnoop3.0,2013-09-08 13:56:00,
2013-09-08 09:01:00,76.2,66.1,29.77,SSW,206,1.0,-999.0,71,0.00,,,0.00,WeatherSnoop3.0,2013-09-08 14:01:00,
2013-09-08 09:06:00,76.6,66.5,29.77,SW,228,3.0,-999.0,71,0.00,,,0.00,WeatherSnoop3.0,2013-09-08 14:06:00,
2013-09-08 09:11:00,77.1,66.1,29.77,WSW,239,1.0,-999.0,69,0.00,,,0.00,WeatherSnoop3.0,2013-09-08 14:11:00,
2013-09-08 09:16:00,77.8,66.4,29.77,SSW,210,2.0,-999.0,68,0.00,,,0.00,WeatherSnoop3.0,2013-09-08 14:16:00,
2013-09-08 09:21:00,78.5,66.2,29.77,SW,218,2.0,-999.0,66,0.00,,,0.00,WeatherSnoop3.0,2013-09-08 14:21:00,
2013-09-08 09:26:00,79.3,66.5,29.77,SW,225,2.0,-999.0,65,0.00,,,0.00,WeatherSnoop3.0,2013-09-08 14:26:00,
2013-09-08 09:31:00,80.0,66.7,29.77,SSW,200,2.0,-999.0,64,0.00,,,0.00,WeatherSnoop3.0,2013-09-08 14:31:00,
2013-09-08 09:36:00,80.5,66.7,29.77,SSW,203,3.0,-999.0,63,0.00,,,0.00,WeatherSnoop3.0,2013-09-08 14:36:00,
2013-09-08 09:41:00,80.9,66.6,29.77,SW,218,4.0,-999.0,62,0.00,,,0.00,WeatherSnoop3.0,2013-09-08 14:41:00,
2013-09-08 09:46:00,81.3,67.0,29.77,SW,226,3.0,-999.0,62,0.00,,,0.00,WeatherSnoop3.0,2013-09-08 14:46:00,
2013-09-08 09:51:00,81.8,67.0,29.77,South,171,5.0,-999.0,61,0.00,,,0.00,WeatherSnoop3.0,2013-09-08 14:51:00,
2013-09-08 09:56:00,82.6,66.8,29.77,SSW,210,4.0,-999.0,59,0.00,,,0.00,WeatherSnoop3.0,2013-09-08 14:56:00,
2013-09-08 10:01:00,83.3,67.0,29.77,WSW,240,3.0,-999.0,58,0.00,,,0.00,WeatherSnoop3.0,2013-09-08 15:01:00,
2013-09-08 10:06:00,84.1,67.2,29.77,SSW,206,2.0,-999.0,57,0.00,,,0.00,WeatherSnoop3.0,2013-09-08 15:06:00,
2013-09-08 10:11:00,85.0,67.0,29.77,WSW,242,5.0,-999.0,55,0.00,,,0.00,WeatherSnoop3.0,2013-09-08 15:11:00,
2013-09-08 10:16:00,85.5,66.9,29.77,WSW,250,3.0,-999.0,54,0.00,,,0.00,WeatherSnoop3.0,2013-09-08 15:16:00,
2013-09-08 10:21:00,86.1,66.9,29.77,WSW,251,3.0,-999.0,53,0.00,,,0.00,WeatherSnoop3.0,2013-09-08 15:21:00,
2013-09-08 10:26:00,86.5,67.8,29.77,SSW,198,2.0,-999.0,54,0.00,,,0.00,WeatherSnoop3.0,2013-09-08 15:26:00,
2013-09-08 10:31:00,87.1,66.7,29.77,SSW,193,3.0,-999.0,51,0.00,,,0.00,WeatherSnoop3.0,2013-09-08 15:31:00,
2013-09-08 10:36:00,87.5,67.7,29.77,South,188,3.0,-999.0,52,0.00,,,0.00,WeatherSnoop3.0,2013-09-08 15:36:00,
2013-09-08 10:41:00,88.1,66.5,29.77,South,170,1.0,-999.0,49,0.00,,,0.00,WeatherSnoop3.0,2013-09-08 15:41:00,
2013-09-08 10:46:00,88.7,67.6,29.77,SE,138,2.0,-999.0,50,0.00,,,0.00,WeatherSnoop3.0,2013-09-08 15:46:00,
2013-09-08 10:51:00,89.1,66.8,29.77,SW,218,3.0,-999.0,48,0.00,,,0.00,WeatherSnoop3.0,2013-09-08 15:51:00,
2013-09-08 10:56:00,89.2,66.9,29.76,SW,225,3.0,-999.0,48,0.00,,,0.00,WeatherSnoop3.0,2013-09-08 15:56:00,
2013-09-08 11:01:00,89.8,66.8,29.76,WSW,256,3.0,-999.0,47,0.00,,,0.00,WeatherSnoop3.0,2013-09-08 16:01:00,
2013-09-08 11:06:00,90.1,67.1,29.76,SSW,207,8.0,-999.0,47,0.00,,,0.00,WeatherSnoop3.0,2013-09-08 16:06:00,
2013-09-08 11:11:00,90.4,68.0,29.76,WSW,252,4.0,-999.0,48,0.00,,,0.00,WeatherSnoop3.0,2013-09-08 16:11:00,
2013-09-08 11:16:00,90.6,66.9,29.76,SW,221,5.0,-999.0,46,0.00,,,0.00,WeatherSnoop3.0,2013-09-08 16:16:00,
2013-09-08 11:21:00,91.0,67.3,29.76,SW,215,7.0,-999.0,46,0.00,,,0.00,WeatherSnoop3.0,2013-09-08 16:21:00,
2013-09-08 11:26:00,91.3,66.9,29.76,ESE,119,3.0,-999.0,45,0.00,,,0.00,WeatherSnoop3.0,2013-09-08 16:26:00,
2013-09-08 11:31:00,91.6,66.6,29.76,WSW,242,4.0,-999.0,44,0.00,,,0.00,WeatherSnoop3.0,2013-09-08 16:31:00,
2013-09-08 11:36:00,92.1,67.0,29.76,SE,129,4.0,-999.0,44,0.00,,,0.00,WeatherSnoop3.0,2013-09-08 16:36:00,
2013-09-08 11:41:00,92.2,67.1,29.76,SSW,210,3.0,-999.0,44,0.00,,,0.00,WeatherSnoop3.0,2013-09-08 16:41:00,
2013-09-08 11:46:00,92.2,67.7,29.76,South,170,3.0,-999.0,45,0.00,,,0.00,WeatherSnoop3.0,2013-09-08 16:46:00,
2013-09-08 11:51:00,92.4,67.9,29.76,SE,142,3.0,-999.0,45,0.00,,,0.00,WeatherSnoop3.0,2013-09-08 16:51:00,
2013-09-08 11:56:00,92.9,67.7,29.76,SE,131,2.0,-999.0,44,0.00,,,0.00,WeatherSnoop3.0,2013-09-08 16:56:00,
2013-09-08 12:01:00,93.1,67.9,29.76,SSE,153,4.0,-999.0,44,0.00,,,0.00,WeatherSnoop3.0,2013-09-08 17:01:00,
2013-09-08 12:06:00,93.0,67.1,29.76,SW,229,4.0,-999.0,43,0.00,,,0.00,WeatherSnoop3.0,2013-09-08 17:06:00,
2013-09-08 12:11:00,93.3,67.4,29.76,SE,129,4.0,-999.0,43,0.00,,,0.00,WeatherSnoop3.0,2013-09-08 17:11:00,
2013-09-08 12:16:00,93.4,67.5,29.75,South,191,3.0,-999.0,43,0.00,,,0.00,WeatherSnoop3.0,2013-09-08 17:16:00,
2013-09-08 12:21:00,94.3,69.6,29.76,SE,138,3.0,-999.0,45,0.00,,,0.00,WeatherSnoop3.0,2013-09-08 17:21:00,
2013-09-08 12:26:00,94.6,66.5,29.75,SE,142,4.0,-999.0,40,0.00,,,0.00,WeatherSnoop3.0,2013-09-08 17:26:00,
2013-09-08 12:31:00,94.8,67.4,29.75,SSE,162,2.0,-999.0,41,0.00,,,0.00,WeatherSnoop3.0,2013-09-08 17:31:00,
2013-09-08 12:36:00,95.1,66.9,29.75,SE,146,3.0,-999.0,40,0.00,,,0.00,WeatherSnoop3.0,2013-09-08 17:36:00,
2013-09-08 12:41:00,95.5,65.8,29.75,SSE,167,2.0,-999.0,38,0.00,,,0.00,WeatherSnoop3.0,2013-09-08 17:41:00,
2013-09-08 12:46:00,96.2,67.2,29.75,SSW,193,1.0,-999.0,39,0.00,,,0.00,WeatherSnoop3.0,2013-09-08 17:46:00,
2013-09-08 12:51:00,96.2,67.2,29.75,SSW,212,4.0,-999.0,39,0.00,,,0.00,WeatherSnoop3.0,2013-09-08 17:51:00,
2013-09-08 12:56:00,96.6,67.5,29.74,SSE,149,2.0,-999.0,39,0.00,,,0.00,WeatherSnoop3.0,2013-09-08 17:56:00,
2013-09-08 13:01:00,96.8,66.9,29.74,South,191,6.0,-999.0,38,0.00,,,0.00,WeatherSnoop3.0,2013-09-08 18:01:00,
2013-09-08 13:06:00,97.0,67.1,29.74,ESE,105,3.0,-999.0,38,0.00,,,0.00,WeatherSnoop3.0,2013-09-08 18:06:00,
2013-09-08 13:11:00,97.3,66.6,29.74,SSE,166,3.0,-999.0,37,0.00,,,0.00,WeatherSnoop3.0,2013-09-08 18:11:00,
2013-09-08 13:16:00,97.3,66.6,29.74,SE,143,2.0,-999.0,37,0.00,,,0.00,WeatherSnoop3.0,2013-09-08 18:16:00,
2013-09-08 13:21:00,97.2,65.7,29.74,SE,146,2.0,-999.0,36,0.00,,,0.00,WeatherSnoop3.0,2013-09-08 18:21:00,
2013-09-08 13:26:00,97.3,65.8,29.74,South,190,4.0,-999.0,36,0.00,,,0.00,WeatherSnoop3.0,2013-09-08 18:26:00,
2013-09-08 13:31:00,97.3,65.0,29.74,SW,218,3.0,-999.0,35,0.00,,,0.00,WeatherSnoop3.0,2013-09-08 18:31:00,
2013-09-08 13:36:00,97.6,64.4,29.73,ESE,123,2.0,-999.0,34,0.00,,,0.00,WeatherSnoop3.0,2013-09-08 18:36:00,
2013-09-08 13:41:00,97.7,64.5,29.73,SE,136,3.0,-999.0,34,0.00,,,0.00,WeatherSnoop3.0,2013-09-08 18:41:00,
2013-09-08 13:46:00,97.6,65.3,29.73,SSW,197,0.0,-999.0,35,0.00,,,0.00,WeatherSnoop3.0,2013-09-08 18:46:00,
2013-09-08 13:51:00,97.6,63.6,29.73,SW,235,5.0,-999.0,33,0.00,,,0.00,WeatherSnoop3.0,2013-09-08 18:51:00,
2013-09-08 13:56:00,97.9,63.8,29.73,SW,218,4.0,-999.0,33,0.00,,,0.00,WeatherSnoop3.0,2013-09-08 18:56:00,
2013-09-08 14:01:00,98.3,65.0,29.73,SE,125,4.0,-999.0,34,0.00,,,0.00,WeatherSnoop3.0,2013-09-08 19:01:00,
2013-09-08 14:06:00,98.5,66.1,29.73,SW,228,2.0,-999.0,35,0.00,,,0.00,WeatherSnoop3.0,2013-09-08 19:06:00,
2013-09-08 14:11:00,98.7,65.4,29.72,SW,232,5.0,-999.0,34,0.00,,,0.00,WeatherSnoop3.0,2013-09-08 19:11:00,
2013-09-08 14:16:00,98.7,62.8,29.72,SW,218,5.0,-999.0,31,0.00,,,0.00,WeatherSnoop3.0,2013-09-08 19:16:00,
2013-09-08 14:21:00,98.8,64.6,29.72,SSW,197,8.0,-999.0,33,0.00,,,0.00,WeatherSnoop3.0,2013-09-08 19:21:00,
2013-09-08 14:26:00,98.8,64.6,29.72,SE,131,6.0,-999.0,33,0.00,,,0.00,WeatherSnoop3.0,2013-09-08 19:26:00,
2013-09-08 14:31:00,99.0,63.9,29.72,SSE,160,1.0,-999.0,32,0.00,,,0.00,WeatherSnoop3.0,2013-09-08 19:31:00,
2013-09-08 14:36:00,99.0,64.8,29.72,SW,232,10.0,-999.0,33,0.00,,,0.00,WeatherSnoop3.0,2013-09-08 19:36:00,
2013-09-08 14:41:00,98.7,64.5,29.72,SSW,203,3.0,-999.0,33,0.00,,,0.00,WeatherSnoop3.0,2013-09-08 19:41:00,
2013-09-08 14:46:00,98.2,63.2,29.71,SSW,197,1.0,-999.0,32,0.00,,,0.00,WeatherSnoop3.0,2013-09-08 19:46:00,
2013-09-08 14:51:00,97.7,64.5,29.71,SSW,207,1.0,-999.0,34,0.00,,,0.00,WeatherSnoop3.0,2013-09-08 19:51:00,
2013-09-08 14:56:00,98.4,65.1,29.71,SSE,161,4.0,-999.0,34,0.00,,,0.00,WeatherSnoop3.0,2013-09-08 19:56:00,
2013-09-08 15:01:00,98.3,63.3,29.71,SE,134,1.0,-999.0,32,0.00,,,0.00,WeatherSnoop3.0,2013-09-08 20:01:00,
2013-09-08 15:06:00,97.6,63.6,29.71,WSW,240,3.0,-999.0,33,0.00,,,0.00,WeatherSnoop3.0,2013-09-08 20:06:00,
2013-09-08 15:11:00,98.2,64.1,29.70,SW,218,3.0,-999.0,33,0.00,,,0.00,WeatherSnoop3.0,2013-09-08 20:11:00,
2013-09-08 15:16:00,98.7,63.7,29.70,SE,140,2.0,-999.0,32,0.00,,,0.00,WeatherSnoop3.0,2013-09-08 20:16:00,
2013-09-08 15:21:00,98.7,63.7,29.70,ESE,110,4.0,-999.0,32,0.00,,,0.00,WeatherSnoop3.0,2013-09-08 20:21:00,
2013-09-08 15:26:00,98.7,63.7,29.70,SE,125,4.0,-999.0,32,0.00,,,0.00,WeatherSnoop3.0,2013-09-08 20:26:00,
2013-09-08 15:31:00,99.0,63.0,29.69,SSW,194,3.0,-999.0,31,0.00,,,0.00,WeatherSnoop3.0,2013-09-08 20:31:00,
2013-09-08 15:36:00,99.2,63.2,29.69,SW,215,3.0,-999.0,31,0.00,,,0.00,WeatherSnoop3.0,2013-09-08 20:36:00,
2013-09-08 15:41:00,99.2,63.2,29.69,SSE,148,4.0,-999.0,31,0.00,,,0.00,WeatherSnoop3.0,2013-09-08 20:41:00,
2013-09-08 15:46:00,98.9,62.9,29.69,South,188,3.0,-999.0,31,0.00,,,0.00,WeatherSnoop3.0,2013-09-08 20:46:00,
2013-09-08 15:51:00,99.3,62.3,29.69,SW,230,8.0,-999.0,30,0.00,,,0.00,WeatherSnoop3.0,2013-09-08 20:51:00,
2013-09-08 15:56:00,99.4,63.4,29.69,South,169,4.0,-999.0,31,0.00,,,0.00,WeatherSnoop3.0,2013-09-08 20:56:00,
2013-09-08 16:01:00,99.4,62.4,29.69,SSW,197,4.0,-999.0,30,0.00,,,0.00,WeatherSnoop3.0,2013-09-08 21:01:00,
2013-09-08 16:06:00,99.3,62.3,29.68,SSW,197,2.0,-999.0,30,0.00,,,0.00,WeatherSnoop3.0,2013-09-08 21:06:00,
2013-09-08 16:11:00,100.1,62.1,29.68,WSW,245,2.0,-999.0,29,0.00,,,0.00,WeatherSnoop3.0,2013-09-08 21:11:00,
2013-09-08 16:16:00,99.9,61.9,29.68,East,98,3.0,-999.0,29,0.00,,,0.00,WeatherSnoop3.0,2013-09-08 21:16:00,
2013-09-08 16:21:00,99.7,63.6,29.68,SSW,208,6.0,-999.0,31,0.00,,,0.00,WeatherSnoop3.0,2013-09-08 21:21:00,
2013-09-08 16:26:00,99.8,63.7,29.68,SE,139,4.0,-999.0,31,0.00,,,0.00,WeatherSnoop3.0,2013-09-08 21:26:00,
2013-09-08 16:31:00,99.5,62.5,29.68,SSW,194,2.0,-999.0,30,0.00,,,0.00,WeatherSnoop3.0,2013-09-08 21:31:00,
2013-09-08 16:36:00,99.5,62.5,29.68,WSW,256,7.0,-999.0,30,0.00,,,0.00,WeatherSnoop3.0,2013-09-08 21:36:00,
2013-09-08 16:41:00,99.4,62.4,29.68,SSE,165,2.0,-999.0,30,0.00,,,0.00,WeatherSnoop3.0,2013-09-08 21:41:00,
2013-09-08 16:46:00,99.3,62.3,29.68,ESE,116,5.0,-999.0,30,0.00,,,0.00,WeatherSnoop3.0,2013-09-08 21:46:00,
2013-09-08 16:51:00,99.0,63.0,29.68,SE,131,7.0,-999.0,31,0.00,,,0.00,WeatherSnoop3.0,2013-09-08 21:51:00,
2013-09-08 16:56:00,98.6,61.7,29.68,South,179,4.0,-999.0,30,0.00,,,0.00,WeatherSnoop3.0,2013-09-08 21:56:00,
2013-09-08 17:01:00,98.7,62.8,29.68,SSW,212,2.0,-999.0,31,0.00,,,0.00,WeatherSnoop3.0,2013-09-08 22:01:00,
2013-09-08 17:06:00,98.7,61.8,29.68,WSW,248,2.0,-999.0,30,0.00,,,0.00,WeatherSnoop3.0,2013-09-08 22:06:00,
2013-09-08 17:11:00,98.7,62.8,29.68,SW,221,3.0,-999.0,31,0.00,,,0.00,WeatherSnoop3.0,2013-09-08 22:11:00,
2013-09-08 17:16:00,98.7,62.8,29.68,SE,139,4.0,-999.0,31,0.00,,,0.00,WeatherSnoop3.0,2013-09-08 22:16:00,
2013-09-08 17:21:00,98.7,62.8,29.68,SE,131,1.0,-999.0,31,0.00,,,0.00,WeatherSnoop3.0,2013-09-08 22:21:00,
2013-09-08 17:26:00,98.9,62.9,29.68,SSE,163,3.0,-999.0,31,0.00,,,0.00,WeatherSnoop3.0,2013-09-08 22:26:00,
2013-09-08 17:31:00,98.7,61.8,29.68,SE,131,2.0,-999.0,30,0.00,,,0.00,WeatherSnoop3.0,2013-09-08 22:31:00,
2013-09-08 17:36:00,98.6,62.7,29.68,SW,226,2.0,-999.0,31,0.00,,,0.00,WeatherSnoop3.0,2013-09-08 22:36:00,
2013-09-08 17:41:00,98.6,61.7,29.68,SSW,192,2.0,-999.0,30,0.00,,,0.00,WeatherSnoop3.0,2013-09-08 22:41:00,
2013-09-08 17:46:00,98.5,61.6,29.68,South,174,3.0,-999.0,30,0.00,,,0.00,WeatherSnoop3.0,2013-09-08 22:46:00,
2013-09-08 17:51:00,98.3,61.5,29.67,SSW,206,2.0,-999.0,30,0.00,,,0.00,WeatherSnoop3.0,2013-09-08 22:51:00,
2013-09-08 18:01:00,97.9,61.1,29.67,SW,215,7.0,-999.0,30,0.00,,,0.00,WeatherSnoop3.0,2013-09-08 23:01:00,
2013-09-08 18:06:00,97.6,61.8,29.67,WSW,250,2.0,-999.0,31,0.00,,,0.00,WeatherSnoop3.0,2013-09-08 23:06:00,
2013-09-08 18:11:00,97.4,61.6,29.67,SW,215,5.0,-999.0,31,0.00,,,0.00,WeatherSnoop3.0,2013-09-08 23:11:00,
2013-09-08 18:16:00,97.1,62.3,29.67,SSW,208,3.0,-999.0,32,0.00,,,0.00,WeatherSnoop3.0,2013-09-08 23:16:00,
2013-09-08 18:21:00,96.8,61.1,29.67,SSW,200,3.0,-999.0,31,0.00,,,0.00,WeatherSnoop3.0,2013-09-08 23:21:00,
2013-09-08 18:26:00,96.6,61.8,29.67,SW,218,6.0,-999.0,32,0.00,,,0.00,WeatherSnoop3.0,2013-09-08 23:26:00,
2013-09-08 18:31:00,96.2,62.4,29.67,South,174,4.0,-999.0,33,0.00,,,0.00,WeatherSnoop3.0,2013-09-08 23:31:00,
2013-09-08 18:36:00,95.7,61.9,29.67,SE,125,1.0,-999.0,33,0.00,,,0.00,WeatherSnoop3.0,2013-09-08 23:36:00,
2013-09-08 18:41:00,95.2,62.4,29.67,SE,139,1.0,-999.0,34,0.00,,,0.00,WeatherSnoop3.0,2013-09-08 23:41:00,
2013-09-08 18:46:00,94.7,61.9,29.67,ESE,122,3.0,-999.0,34,0.00,,,0.00,WeatherSnoop3.0,2013-09-08 23:46:00,
2013-09-08 18:51:00,94.3,61.6,29.67,SW,219,4.0,-999.0,34,0.00,,,0.00,WeatherSnoop3.0,2013-09-08 23:51:00,
2013-09-08 18:56:00,93.9,62.0,29.67,SE,129,3.0,-999.0,35,0.00,,,0.00,WeatherSnoop3.0,2013-09-08 23:56:00,
2013-09-08 19:01:00,93.4,62.4,29.67,SSE,147,2.0,-999.0,36,0.00,,,0.00,WeatherSnoop3.0,2013-09-09 00:01:00,
2013-09-08 19:06:00,93.0,62.8,29.67,SE,134,1.0,-999.0,37,0.00,,,0.00,WeatherSnoop3.0,2013-09-09 00:06:00,
2013-09-08 19:11:00,92.6,62.5,29.67,South,170,3.0,-999.0,37,0.00,,,0.00,WeatherSnoop3.0,2013-09-09 00:11:00,
2013-09-08 19:16:00,92.2,62.1,29.68,SSE,152,0.0,-999.0,37,0.00,,,0.00,WeatherSnoop3.0,2013-09-09 00:16:00,
2013-09-08 19:21:00,91.9,61.9,29.68,SSE,164,5.0,-999.0,37,0.00,,,0.00,WeatherSnoop3.0,2013-09-09 00:21:00,
2013-09-08 19:26:00,91.7,61.7,29.68,SE,135,2.0,-999.0,37,0.00,,,0.00,WeatherSnoop3.0,2013-09-09 00:26:00,
2013-09-08 19:31:00,91.3,62.1,29.68,SSE,159,0.0,-999.0,38,0.00,,,0.00,WeatherSnoop3.0,2013-09-09 00:31:00,
2013-09-08 19:36:00,90.8,63.1,29.68,SE,134,1.0,-999.0,40,0.00,,,0.00,WeatherSnoop3.0,2013-09-09 00:36:00,
2013-09-08 19:41:00,90.2,61.9,29.68,SE,145,1.0,-999.0,39,0.00,,,0.00,WeatherSnoop3.0,2013-09-09 00:41:00,
2013-09-08 19:46:00,89.7,62.1,29.68,SE,136,2.0,-999.0,40,0.00,,,0.00,WeatherSnoop3.0,2013-09-09 00:46:00,
2013-09-08 19:51:00,89.3,62.5,29.68,SE,137,1.0,-999.0,41,0.00,,,0.00,WeatherSnoop3.0,2013-09-09 00:51:00,
2013-09-08 19:56:00,89.1,61.6,29.69,SSE,152,1.0,-999.0,40,0.00,,,0.00,WeatherSnoop3.0,2013-09-09 00:56:00,
2013-09-08 20:01:00,88.7,61.9,29.69,SSW,210,3.0,-999.0,41,0.00,,,0.00,WeatherSnoop3.0,2013-09-09 01:01:00,
2013-09-08 20:06:00,88.4,61.7,29.69,SSE,149,2.0,-999.0,41,0.00,,,0.00,WeatherSnoop3.0,2013-09-09 01:06:00,
2013-09-08 20:11:00,88.2,61.5,29.69,SE,131,2.0,-999.0,41,0.00,,,0.00,WeatherSnoop3.0,2013-09-09 01:11:00,
2013-09-08 20:16:00,88.0,62.0,29.69,SE,131,1.0,-999.0,42,0.00,,,0.00,WeatherSnoop3.0,2013-09-09 01:16:00,
2013-09-08 20:21:00,87.8,61.8,29.69,SE,134,1.0,-999.0,42,0.00,,,0.00,WeatherSnoop3.0,2013-09-09 01:21:00,
2013-09-08 20:26:00,87.5,62.2,29.69,South,170,2.0,-999.0,43,0.00,,,0.00,WeatherSnoop3.0,2013-09-09 01:26:00,
2013-09-08 20:31:00,87.5,62.2,29.69,SSE,156,2.0,-999.0,43,0.00,,,0.00,WeatherSnoop3.0,2013-09-09 01:31:00,
2013-09-08 20:36:00,87.5,62.2,29.69,ESE,120,3.0,-999.0,43,0.00,,,0.00,WeatherSnoop3.0,2013-09-09 01:36:00,
2013-09-08 20:41:00,87.4,62.1,29.69,SSE,161,3.0,-999.0,43,0.00,,,0.00,WeatherSnoop3.0,2013-09-09 01:41:00,
2013-09-08 20:46:00,87.2,61.9,29.69,South,177,4.0,-999.0,43,0.00,,,0.00,WeatherSnoop3.0,2013-09-09 01:46:00,
2013-09-08 20:51:00,87.0,61.8,29.69,SSE,150,2.0,-999.0,43,0.00,,,0.00,WeatherSnoop3.0,2013-09-09 01:51:00,
2013-09-08 20:56:00,86.8,62.2,29.69,SE,134,3.0,-999.0,44,0.00,,,0.00,WeatherSnoop3.0,2013-09-09 01:56:00,
2013-09-08 21:01:00,86.6,62.1,29.69,South,186,1.0,-999.0,44,0.00,,,0.00,WeatherSnoop3.0,2013-09-09 02:01:00,
2013-09-08 21:06:00,86.4,61.9,29.70,South,188,2.0,-999.0,44,0.00,,,0.00,WeatherSnoop3.0,2013-09-09 02:06:00,
2013-09-08 21:11:00,86.1,61.6,29.70,SE,146,3.0,-999.0,44,0.00,,,0.00,WeatherSnoop3.0,2013-09-09 02:11:00,
2013-09-08 21:16:00,85.9,62.1,29.70,South,183,1.0,-999.0,45,0.00,,,0.00,WeatherSnoop3.0,2013-09-09 02:16:00,
2013-09-08 21:21:00,85.6,61.8,29.70,SE,143,2.0,-999.0,45,0.00,,,0.00,WeatherSnoop3.0,2013-09-09 02:21:00,
2013-09-08 21:26:00,85.4,61.6,29.70,SSE,159,3.0,-999.0,45,0.00,,,0.00,WeatherSnoop3.0,2013-09-09 02:26:00,
2013-09-08 21:31:00,85.2,62.1,29.70,SSE,166,2.0,-999.0,46,0.00,,,0.00,WeatherSnoop3.0,2013-09-09 02:31:00,
2013-09-08 21:36:00,85.0,61.9,29.70,South,170,2.0,-999.0,46,0.00,,,0.00,WeatherSnoop3.0,2013-09-09 02:36:00,
2013-09-08 21:41:00,84.9,61.8,29.71,SSE,163,2.0,-999.0,46,0.00,,,0.00,WeatherSnoop3.0,2013-09-09 02:41:00,
2013-09-08 21:46:00,84.7,62.2,29.71,SSE,156,3.0,-999.0,47,0.00,,,0.00,WeatherSnoop3.0,2013-09-09 02:46:00,
2013-09-08 21:51:00,84.7,62.2,29.71,SE,136,4.0,-999.0,47,0.00,,,0.00,WeatherSnoop3.0,2013-09-09 02:51:00,
2013-09-08 21:56:00,84.5,62.0,29.71,West,263,4.0,-999.0,47,0.00,,,0.00,WeatherSnoop3.0,2013-09-09 02:56:00,
2013-09-08 22:01:00,84.2,62.4,29.71,SSW,207,3.0,-999.0,48,0.00,,,0.00,WeatherSnoop3.0,2013-09-09 03:01:00,
2013-09-08 22:06:00,84.0,62.2,29.71,SE,145,1.0,-999.0,48,0.00,,,0.00,WeatherSnoop3.0,2013-09-09 03:06:00,
2013-09-08 22:11:00,83.8,62.6,29.72,SSE,147,4.0,-999.0,49,0.00,,,0.00,WeatherSnoop3.0,2013-09-09 03:11:00,
2013-09-08 22:16:00,83.8,62.6,29.72,SW,217,4.0,-999.0,49,0.00,,,0.00,WeatherSnoop3.0,2013-09-09 03:16:00,
2013-09-08 22:21:00,83.7,62.5,29.72,SE,142,2.0,-999.0,49,0.00,,,0.00,WeatherSnoop3.0,2013-09-09 03:21:00,
2013-09-08 22:26:00,83.6,62.4,29.72,South,186,2.0,-999.0,49,0.00,,,0.00,WeatherSnoop3.0,2013-09-09 03:26:00,
2013-09-08 22:31:00,83.4,62.2,29.72,ESE,110,2.0,-999.0,49,0.00,,,0.00,WeatherSnoop3.0,2013-09-09 03:31:00,
2013-09-08 22:36:00,83.3,62.1,29.72,SE,142,3.0,-999.0,49,0.00,,,0.00,WeatherSnoop3.0,2013-09-09 03:36:00,
2013-09-08 22:41:00,83.1,61.9,29.72,SE,139,4.0,-999.0,49,0.00,,,0.00,WeatherSnoop3.0,2013-09-09 03:41:00,
2013-09-08 22:46:00,82.9,61.8,29.73,East,100,4.0,-999.0,49,0.00,,,0.00,WeatherSnoop3.0,2013-09-09 03:46:00,
2013-09-08 22:51:00,82.8,62.2,29.72,SW,218,1.0,-999.0,50,0.00,,,0.00,WeatherSnoop3.0,2013-09-09 03:51:00,
2013-09-08 22:56:00,82.6,62.0,29.73,SSE,153,1.0,-999.0,50,0.00,,,0.00,WeatherSnoop3.0,2013-09-09 03:56:00,
2013-09-08 23:01:00,82.3,61.8,29.73,SE,135,3.0,-999.0,50,0.00,,,0.00,WeatherSnoop3.0,2013-09-09 04:01:00,
2013-09-08 23:06:00,82.2,61.7,29.73,SE,134,4.0,-999.0,50,0.00,,,0.00,WeatherSnoop3.0,2013-09-09 04:06:00,
2013-09-08 23:11:00,82.2,61.7,29.73,SSE,149,3.0,-999.0,50,0.00,,,0.00,WeatherSnoop3.0,2013-09-09 04:11:00,
2013-09-08 23:16:00,82.0,61.5,29.73,SE,129,4.0,-999.0,50,0.00,,,0.00,WeatherSnoop3.0,2013-09-09 04:16:00,
2013-09-08 23:21:00,81.8,61.9,29.74,SE,142,2.0,-999.0,51,0.00,,,0.00,WeatherSnoop3.0,2013-09-09 04:21:00,
2013-09-08 23:26:00,81.6,61.7,29.74,SE,131,1.0,-999.0,51,0.00,,,0.00,WeatherSnoop3.0,2013-09-09 04:26:00,
2013-09-08 23:31:00,81.5,61.6,29.74,SE,131,6.0,-999.0,51,0.00,,,0.00,WeatherSnoop3.0,2013-09-09 04:31:00,
2013-09-08 23:36:00,81.3,61.4,29.74,South,172,3.0,-999.0,51,0.00,,,0.00,WeatherSnoop3.0,2013-09-09 04:36:00,
2013-09-08 23:41:00,81.2,61.9,29.74,East,95,3.0,-999.0,52,0.00,,,0.00,WeatherSnoop3.0,2013-09-09 04:41:00,
2013-09-08 23:46:00,81.0,61.7,29.74,SE,145,2.0,-999.0,52,0.00,,,0.00,WeatherSnoop3.0,2013-09-09 04:46:00,
2013-09-08 23:51:00,80.6,61.3,29.74,SSW,200,3.0,-999.0,52,0.00,,,0.00,WeatherSnoop3.0,2013-09-09 04:51:00,
2013-09-08 23:56:00,80.5,61.8,29.74,ESE,119,3.0,-999.0,53,0.00,,,0.00,WeatherSnoop3.0,2013-09-09 04:56:00,